This is the latest recevied weather packets stored in our database for station/object KC9EGS. If no packets are shown the sender has not sent any weather packets the latest 10 day(s).
| Time | Temp. | Humidity | Pressure | Rain* | Wind** | Luminosity | Snow |
|---|---|---|---|---|---|---|---|
| 1777219528 | 12.78° C | 72% | 1014.4 hPa | 0 mm | - | - | - |
| 1777219224 | 12.78° C | 73% | 1014.4 hPa | 0 mm | - | - | - |
| 1777218324 | 12.78° C | 73% | 1014.4 hPa | 0 mm | - | - | - |
| 1777217423 | 12.22° C | 75% | 1014.5 hPa | 0 mm | - | - | - |
| 1777216524 | 11.67° C | 76% | 1014.4 hPa | 0 mm | - | - | - |
| 1777215929 | 11.11° C | 77% | 1014.6 hPa | 0 mm | - | - | - |
| 1777215623 | 10.56° C | 78% | 1014.6 hPa | 0 mm | - | - | - |
| 1777215329 | 10.56° C | 79% | 1014.7 hPa | 0 mm | - | - | - |
| 1777214724 | 10° C | 80% | 1014.7 hPa | 0 mm | - | - | - |
| 1777214130 | 9.44° C | 81% | 1015.1 hPa | 0 mm | - | - | - |
| 1777213824 | 9.44° C | 81% | 1015.1 hPa | 0 mm | - | - | - |
| 1777213528 | 8.89° C | 81% | 1015.4 hPa | 0 mm | - | - | - |
| 1777212924 | 8.89° C | 82% | 1015.4 hPa | 0 mm | - | - | - |
| 1777212329 | 8.33° C | 83% | 1014.9 hPa | 0 mm | - | - | - |
| 1777212023 | 8.33° C | 83% | 1014.9 hPa | 0 mm | - | - | - |
| 1777211728 | 7.78° C | 84% | 1014.9 hPa | 0 mm | - | - | - |
| 1777211124 | 7.78° C | 86% | 1014.9 hPa | 0 mm | - | - | - |
| 1777210529 | 7.78° C | 86% | 1014.8 hPa | 0 mm | - | - | - |
| 1777210222 | 7.22° C | 88% | 1014.8 hPa | 0 mm | - | - | - |
| 1777209928 | 7.22° C | 88% | 1014.5 hPa | 0 mm | - | - | - |
| 1777209322 | 7.22° C | 91% | 1014.5 hPa | 0 mm | - | - | - |
| 1777208729 | 6.67° C | 92% | 1014.2 hPa | 0 mm | - | - | - |
| 1777208423 | 6.67° C | 94% | 1014.2 hPa | 0 mm | - | - | - |
| 1777208129 | 6.67° C | 94% | 1013.6 hPa | 0 mm | - | - | - |
| 1777207522 | 6.11° C | 95% | 1013.6 hPa | 0 mm | - | - | - |
* Rain latest hour (hover to see other rain measurements)
** Current wind speed in m/s (hover to see current wind gust speed)